Location: Ehingen
(48.2869°N, 9.7112°E)
Time: 08:28:19
(UTC+02:00)

ISS - Pass Details

Date: 12 February 2018
Orbit: 402 x 406 km, 51.6° (Epoch: 21 June)

Event Time Altitude Azimuth Distance (km) Brightness Sun altitude
Rises 18:26:33 0° 289° (WNW) 2,320 1.2 -8.6°
Reaches altitude 10° 18:28:48 10° 277° (W) 1,458 0.4 -9.0°
Maximum altitude 18:31:39 28° 217° (SW) 791 -1.8 -9.4°
Drops below altitude 10° 18:34:29 10° 156° (SSE) 1,452 -1.2 -9.9°
Enters shadow 18:37:09 -1° 143° (SE) 2,479 -0.1 -10.4°
